Regional Weather Roundup
Issued by NWS Cleveland, OH

Home | Current Version | Previous Version | Text Only | Print | Product List | Glossary Off
Versions: 1 2 3 4 5 6 7 8 9 10 11 12 13 14 15 16 17 18 19 20 21 22 23 24 25 26 27 28 29 30 31 32 33 34 35 36 37 38 39 40 41 42 43 44 45 46 47 48 49 50

162
ASUS41 KCLE 031700
RWRCLE
OHIO REGIONAL WEATHER ROUNDUP
NATIONAL WEATHER SERVICE WILMINGTON, OH
1200 PM EST SAT DEC 03 2016

NOTE: "FAIR" INDICATES FEW OR NO CLOUDS BELOW 12,000 FEET WITH NO
SIGNIFICANT WEATHER AND/OR OBSTRUCTIONS TO VISIBILITY.

OHZ001>008-015>018-024>027-034-035-043-044-031800-
   NORTHWEST OHIO

CITY           SKY/WX    TMP DP  RH WIND       PRES   REMARKS
DEFIANCE       CLOUDY    39  27  62 VRB3      30.30F
FINDLAY        CLOUDY    38  28  67 W6        30.28F
TOLEDO EXPRESS CLOUDY    37  30  75 W8        30.30F
TOLEDO EXEC    CLOUDY    39  31  72 W7        30.31F
LIMA           CLOUDY    37  29  72 W5        30.30F
$$

OHZ009>014-019>023-028>033-038-089-031800-
   NORTHEAST OHIO

CITY           SKY/WX    TMP DP  RH WIND       PRES   REMARKS
CLE-HOPKINS    CLOUDY    39  29  67 W7        30.29F
CLE-LAKEFRONT  CLOUDY    41  32  70 W13       30.26F
CUY CO. ARPT   CLOUDY    39  34  81 W9        30.27F
LORAIN-ELYRIA  CLOUDY    38  29  70 W7        30.28F
ASHTABULA      CLOUDY    39  34  82 W8        30.26F
AKRON-CANTON   CLOUDY    37  30  75 W7        30.27F
WOOSTER        NOT AVBL
MANSFIELD      CLOUDY    36  28  73 W5        30.27F
YOUNGSTOWN     CLOUDY    37  30  75 W10       30.25F
$$

OHZ042-051>053-060>062-070>072-077>081-031800-
  SOUTHWEST OHIO

CITY           SKY/WX    TMP DP  RH WIND       PRES   REMARKS
CINC-COVINGTON CLOUDY    40  31  70 CALM      30.34S
CINC-LUNKEN    CLOUDY    41  30  65 CALM      30.37S
HAMILTON       CLOUDY    40  26  57 CALM      30.36S
DAYTON         NOT AVBL
WRIGHT-PAT AFB NOT AVBL
DAYTON GENERAL CLOUDY    38  26  62 W5        30.32F
WILMINGTON     CLOUDY    38  29  70 W9        30.31F
$$

OHZ036-037-039>041-045>050-054>059-063>069-073>076-082>088-031800-
  CENTRAL AND SOUTHEAST OHIO

CITY           SKY/WX    TMP DP  RH WIND       PRES   REMARKS
COLUMBUS       CLOUDY    38  27  64 W7        30.31F
OSU AIRPORT    CLOUDY    38  27  64 SW5       30.31F
BOLTON FIELD   CLOUDY    37  27  65 NW5       30.31F
RICKENBACK AFB NOT AVBL
NEWARK         CLOUDY    37  28  70 W3        30.31F
MARION         CLOUDY    37  25  61 N5        30.28F
LANCASTER      CLOUDY    38  31  76 CALM      30.32F
ZANESVILLE     CLOUDY    38  27  64 CALM      30.31F
NEW PHILLY     CLOUDY    37  29  72 W7        30.31F
$$




USA.gov is the U.S. government's official web portal to all federal, state and local government web resources and services.